AV194 Weather Reports


time (UTC)temp
C
wind
direction
speed
KPH
gust
KPH
rain 1hr
cm
rain 24hr
cm
rain mn
cm
humidity
%
barometer
mb
20260504214052 21 171 3.2 17.7 0.00 0.00 0.00 32 1005.0
20260504213552 21 233 6.4 17.7 0.00 0.00 0.00 33 1005.0
20260504213059 21 296 6.4 12.9 0.00 0.00 0.00 33 1004.9
20260504212552 21 148 0.0 9.7 0.00 0.00 0.00 34 1005.0
20260504212051 21 232 1.6 11.3 0.00 0.00 0.00 34 1005.0
20260504211555 21 269 3.2 11.3 0.00 0.00 0.00 33 1005.0
20260504211053 21 205 1.6 16.1 0.00 0.00 0.00 32 1005.0
20260504210552 22 210 6.4 17.7 0.00 0.00 0.00 33 1005.0
20260504210052 22 219 4.8 17.7 0.00 0.00 0.00 33 1004.9
20260504205552 21 192 6.4 19.3 0.00 0.00 0.00 33 1005.0
20260504205049 21 82 4.8 16.1 0.00 0.00 0.00 33 1004.9
20260504204549 21 232 1.6 16.1 0.00 0.00 0.00 32 1005.0
20260504204049 22 297 3.2 14.5 0.00 0.00 0.00 32 1005.0
20260504203550 21 170 4.8 12.9 0.00 0.00 0.00 34 1005.0
20260504203049 21 214 1.6 16.1 0.00 0.00 0.00 34 1005.1
20260504202549 21 193 8.0 16.1 0.00 0.00 0.00 31 1005.2
20260504202049 21 199 1.6 11.3 0.00 0.00 0.00 32 1005.1
20260504201548 21 215 6.4 12.9 0.00 0.00 0.00 32 1005.0
20260504201048 21 179 4.8 16.1 0.00 0.00 0.00 32 1005.1
20260504200548 22 237 3.2 19.3 0.00 0.00 0.00 31 1005.1
20260504200054 22 195 9.7 19.3 0.00 0.00 0.00 33 1004.9
20260504195546 22 219 6.4 17.7 0.00 0.00 0.00 33 1005.0
20260504195045 22 159 6.4 17.7 0.00 0.00 0.00 32 1005.1
20260504194547 22 232 6.4 22.5 0.00 0.00 0.00 32 1005.2
20260504194047 22 216 9.7 22.5 0.00 0.00 0.00 32 1005.2
20260504193546 22 198 4.8 16.1 0.00 0.00 0.00 32 1005.4
20260504193044 22 280 6.4 22.5 0.00 0.00 0.00 31 1005.2
20260504192544 22 201 8.0 22.5 0.00 0.00 0.00 29 1005.2
20260504192042 23 168 8.0 17.7 0.00 0.00 0.00 33 1005.2
20260504191553 22 258 4.8 20.9 0.00 0.00 0.00 31 1005.1
20260504191042 22 163 9.7 20.9 0.00 0.00 0.00 30 1005.2
20260504190541 22 196 4.8 16.1 0.00 0.00 0.00 28 1005.1
20260504190047 22 95 4.8 17.7 0.00 0.00 0.00 29 1005.2
20260504185543 22 221 8.0 17.7 0.00 0.00 0.00 31 1005.2
20260504185039 22 312 9.7 17.7 0.00 0.00 0.00 29 1005.3
20260504184552 23 256 4.8 12.9 0.00 0.00 0.00 31 1005.4
20260504184039 23 257 4.8 12.9 0.00 0.00 0.00 32 1005.5
20260504183540 23 196 6.4 14.5 0.00 0.00 0.00 28 1005.4
20260504183047 22 242 4.8 14.5 0.00 0.00 0.00 33 1005.3
20260504182537 23 100 3.2 19.3 0.00 0.00 0.00 31 1005.5
20260504182040 23 296 9.7 19.3 0.00 0.00 0.00 28 1005.6
20260504181544 22 236 3.2 16.1 0.00 0.00 0.00 30 1005.7
20260504181036 22 201 8.0 17.7 0.00 0.00 0.00 29 1005.8
20260504180536 22 202 8.0 17.7 0.00 0.00 0.00 32 1005.9
20260504180134 23 246 8.0 17.7 0.00 0.00 0.00 30 1005.9
20260504175533 22 288 4.8 12.9 0.00 0.00 0.00 31 1005.8
20260504175035 22 279 6.4 16.1 0.00 0.00 0.00 29 1005.8
20260504174532 23 209 6.4 16.1 0.00 0.00 0.00 30 1005.8
20260504174031 22 199 4.8 14.5 0.00 0.00 0.00 36 1005.7
20260504173531 22 235 3.2 11.3 0.00 0.00 0.00 39 1005.8
20260504173029 22 5 4.8 11.3 0.00 0.00 0.00 32 1006.0
20260504172530 22 284 4.8 12.9 0.00 0.00 0.00 32 1006.1
20260504172028 22 336 3.2 12.9 0.00 0.00 0.00 32 1006.1
20260504171527 22 236 3.2 25.7 0.00 0.00 0.00 32 1006.1
20260504171028 21 286 6.4 25.7 0.00 0.00 0.00 32 1006.1
20260504170527 22 229 4.8 17.7 0.00 0.00 0.00 30 1006.1
20260504151005 18 236 4.8 16.1 0.00 0.00 0.00 38 1007.1
20260504150506 18 213 6.4 16.1 0.00 0.00 0.00 40 1007.2
20260504141051 17 340 8.0 14.5 0.00 0.00 0.00 41 1008.3
20260504140550 17 273 6.4 12.9 0.00 0.00 0.00 41 1008.1
20260504130536 14 176 6.4 14.5 0.00 0.00 0.00 48 1008.7
20260504110504 5 263 0.0 1.6 0.00 0.00 0.00 85 1009.3
20260504100555 4 274 0.0 0.0 0.00 0.00 0.00 84 1009.4
20260504081547 4 274 0.0 1.6 0.00 0.00 0.00 84 1009.3
20260504081049 4 274 0.0 1.6 0.00 0.00 0.00 84 1009.3
20260504080548 4 274 0.0 0.0 0.00 0.00 0.00 84 1009.3
20260504050526 2 265 1.6 3.2 0.00 0.00 0.00 85 1009.3
20260504050024 2 265 0.0 3.2 0.00 0.00 0.00 85 1009.3
20260504045523 2 265 1.6 3.2 0.00 0.00 0.00 85 1009.4
20260504045026 2 265 1.6 3.2 0.00 0.00 0.00 86 1009.4
20260504044530 2 265 0.0 3.2 0.00 0.00 0.00 86 1009.5
20260504044022 2 265 0.0 3.2 0.00 0.00 0.00 86 1009.4
20260504043522 2 265 0.0 3.2 0.00 0.00 0.00 85 1009.4
20260504043025 2 265 0.0 3.2 0.00 0.00 0.00 85 1009.4
20260504042522 2 265 0.0 3.2 0.00 0.00 0.00 84 1009.4
20260504042020 2 265 1.6 3.2 0.00 0.00 0.00 84 1009.4
20260504041522 2 265 0.0 3.2 0.00 0.00 0.00 84 1009.3
20260504041017 2 265 1.6 3.2 0.00 0.00 0.00 83 1009.2
20260504040517 2 265 0.0 3.2 0.00 0.00 0.00 83 1009.2
20260504040016 2 265 0.0 3.2 0.00 0.03 0.00 82 1009.2
20260504035519 2 265 0.0 3.2 0.00 0.03 0.00 82 1009.2
20260504035020 2 265 1.6 3.2 0.00 0.03 0.00 82 1009.2
20260504034515 2 265 0.0 3.2 0.00 0.03 0.00 82 1009.2
20260504034014 2 265 0.0 3.2 0.00 0.03 0.00 82 1009.2
20260504033514 2 267 1.6 3.2 0.00 0.03 0.00 81 1009.1
20260504033013 2 267 1.6 3.2 0.00 0.03 0.00 81 1009.1
20260504032513 2 266 1.6 3.2 0.00 0.03 0.00 81 1009.1
20260504032011 2 266 1.6 3.2 0.00 0.03 0.00 80 1009.0
20260504031510 3 266 1.6 3.2 0.00 0.03 0.00 80 1009.0
20260504031009 3 271 1.6 3.2 0.00 0.03 0.00 80 1009.1
20260504030508 3 271 1.6 3.2 0.00 0.03 0.00 79 1009.1
20260504030027 3 270 1.6 3.2 0.00 0.03 0.00 79 1009.1
20260504025512 3 270 0.0 3.2 0.00 0.03 0.00 79 1009.1
20260504025006 3 270 0.0 3.2 0.00 0.03 0.00 79 1009.0
20260504024508 3 270 1.6 3.2 0.00 0.03 0.00 78 1009.0
20260504024007 3 270 0.0 3.2 0.00 0.03 0.00 79 1009.0
20260504023509 3 270 0.0 3.2 0.00 0.03 0.00 78 1009.0
20260504023005 3 274 1.6 3.2 0.00 0.03 0.00 78 1008.9
20260504022504 3 278 1.6 3.2 0.00 0.03 0.00 78 1008.9
20260504022003 3 278 1.6 3.2 0.00 0.03 0.00 77 1008.9
20260504021502 3 280 1.6 3.2 0.00 0.03 0.00 77 1009.0
20260504021001 3 284 0.0 3.2 0.00 0.03 0.00 77 1008.9
20260504020503 3 286 1.6 3.2 0.00 0.03 0.00 77 1008.9
20260504015600 4 317 0.0 3.2 0.00 0.03 0.00 75 1008.7
20260504015103 4 317 0.0 3.2 0.00 0.03 0.00 74 1008.7
20260504014558 4 317 0.0 3.2 0.00 0.03 0.00 74 1008.7
20260504014057 4 317 0.0 3.2 0.00 0.03 0.00 75 1008.6
20260504013556 4 317 0.0 1.6 0.00 0.03 0.00 74 1008.6
20260504013109 4 317 0.0 1.6 0.00 0.03 0.00 73 1008.6
20260504012557 5 317 0.0 1.6 0.00 0.03 0.00 73 1008.6
20260504012057 5 317 0.0 1.6 0.00 0.03 0.00 71 1008.5
20260504011557 5 317 0.0 1.6 0.00 0.03 0.00 71 1008.4
20260504011056 5 317 0.0 3.2 0.00 0.03 0.00 72 1008.5
20260504010556 5 317 0.0 3.2 0.00 0.03 0.00 70 1008.4
20260504010112 5 340 0.0 0.0 0.00 0.03 0.00 70 1008.4
20260504005559 5 340 0.0 0.0 0.00 0.03 0.00 69 1008.2
20260504005055 5 26 0.0 0.0 0.00 0.03 0.00 70 1008.2
20260504004621 5 26 0.0 0.0 0.00 0.03 0.00 71 1008.1
20260504004055 6 26 0.0 0.0 0.00 0.03 0.00 70 1008.1
20260504003559 6 26 0.0 0.0 0.00 0.03 0.00 70 1008.0
20260504003055 6 26 0.0 0.0 0.00 0.03 0.00 65 1008.0
20260504002555 6 26 0.0 0.0 0.00 0.03 0.00 67 1007.9
20260504002056 6 26 0.0 0.0 0.00 0.03 0.00 67 1007.8
20260504001604 7 26 0.0 0.0 0.00 0.03 0.00 66 1007.9
20260504001055 7 26 0.0 0.0 0.00 0.03 0.00 63 1007.8
20260504000554 7 26 0.0 0.0 0.00 0.03 0.00 62 1007.8
20260504000055 7 26 0.0 0.0 0.00 0.05 0.00 59 1007.7
20260503235556 8 26 0.0 3.2 0.00 0.05 0.00 60 1007.6
20260503235053 8 26 0.0 3.2 0.00 0.05 0.00 59 1007.6
20260503234553 8 9 0.0 3.2 0.00 0.05 0.00 56 1007.5
20260503234053 8 11 0.0 3.2 0.00 0.05 0.00 56 1007.5
20260503233554 8 27 0.0 3.2 0.00 0.05 0.00 54 1007.3
20260503233156 8 63 0.0 1.6 0.00 0.05 0.00 55 1007.3
20260503232552 8 52 0.0 1.6 0.00 0.05 0.00 53 1007.3
20260503232052 9 63 0.0 8.0 0.00 0.05 0.00 53 1007.3
20260503231555 9 355 1.6 8.0 0.00 0.05 0.00 49 1007.3
20260503231052 10 342 0.0 6.4 0.00 0.05 0.00 48 1007.2
20260503230552 10 302 0.0 3.2 0.00 0.05 0.00 48 1007.2
20260503230059 10 313 1.6 8.0 0.00 0.05 0.00 46 1007.1
20260503225551 10 269 3.2 8.0 0.00 0.05 0.00 45 1007.0
20260503225051 10 338 1.6 9.7 0.00 0.05 0.00 48 1007.0
20260503224551 10 346 4.8 9.7 0.00 0.05 0.00 44 1007.0
20260503224051 10 35 4.8 14.5 0.00 0.05 0.00 44 1007.0
20260503223551 10 347 6.4 14.5 0.00 0.05 0.00 43 1006.9
20260503223057 10 327 4.8 8.0 0.00 0.05 0.00 45 1006.7
20260503222550 10 323 1.6 8.0 0.00 0.05 0.00 44 1006.7
20260503222050 10 334 1.6 16.1 0.00 0.05 0.00 43 1006.7
20260503221553 10 27 4.8 16.1 0.00 0.05 0.00 41 1006.6
20260503221052 11 296 6.4 16.1 0.00 0.05 0.00 42 1006.6
20260503220551 11 252 6.4 16.1 0.00 0.05 0.00 44 1006.5
20260503220049 10 336 6.4 11.3 0.00 0.05 0.00 43 1006.5
20260503215549 10 350 6.4 11.3 0.00 0.05 0.00 42 1006.5
20260503215049 11 348 3.2 16.1 0.00 0.05 0.00 43 1006.4
20260503214548 11 329 8.0 16.1 0.00 0.05 0.00 41 1006.4